EN

Hourly Weather Nottingham

Today, 14 June, Monday

Time Temperature Precipitation Wind Pressure Humidity
00:00 +18°C° 0 mm 2 mps 760 mmHg 88%
01:00 +18°C° 0 mm 3 mps 759 mmHg 90%
02:00 +17°C° 0 mm 3 mps 759 mmHg 92%
03:00 +17°C° 0 mm 3 mps 759 mmHg 94%
04:00 +17°C° 0 mm 4 mps 759 mmHg 90%
05:00 +17°C° 0 mm 4 mps 759 mmHg 87%
06:00 +18°C° 0 mm 4 mps 759 mmHg 83%
07:00 +18°C° 0 mm 4 mps 759 mmHg 81%
08:00 +19°C° 0 mm 4 mps 759 mmHg 79%
09:00 +20°C° 0 mm 5 mps 759 mmHg 76%
10:00 +19°C° 0 mm 5 mps 759 mmHg 75%
11:00 +19°C° 0 mm 5 mps 760 mmHg 74%
12:00 +19°C° 0 mm 5 mps 760 mmHg 72%
13:00 +19°C° 0 mm 5 mps 760 mmHg 70%
14:00 +19°C° 0 mm 5 mps 760 mmHg 67%
15:00 +19°C° 0 mm 4 mps 760 mmHg 65%
16:00 +18°C° 0 mm 4 mps 760 mmHg 65%
17:00 +17°C° 0 mm 4 mps 760 mmHg 65%
18:00 +15°C° 0 mm 4 mps 760 mmHg 65%
19:00 +14°C° 0 mm 3 mps 760 mmHg 69%
20:00 +12°C° 0 mm 3 mps 761 mmHg 73%
21:00 +12°C° 0 mm 2 mps 761 mmHg 77%
22:00 +10°C° 0 mm 2 mps 761 mmHg 80%
23:00 +10°C° 0 mm 2 mps 761 mmHg 84%

Tomorrow, 15 June, Tuesday

Time Temperature Precipitation Wind Pressure Humidity
00:00 +10°C° 0 mm 1 mps 761 mmHg 88%
01:00 +10°C° 0 mm 1 mps 761 mmHg 88%
02:00 +9°C° 0 mm 1 mps 761 mmHg 88%
03:00 +9°C° 0 mm 1 mps 761 mmHg 88%
04:00 +10°C° 0 mm 1 mps 761 mmHg 85%
05:00 +11°C° 0 mm 1 mps 761 mmHg 82%
06:00 +12°C° 0 mm 1 mps 761 mmHg 78%
07:00 +14°C° 0 mm 1 mps 761 mmHg 73%
08:00 +15°C° 0 mm 1 mps 761 mmHg 67%
09:00 +15°C° 0 mm 0 mps 761 mmHg 62%
10:00 +18°C° 0 mm 1 mps 761 mmHg 60%
11:00 +19°C° 0 mm 1 mps 760 mmHg 57%
12:00 +19°C° 0 mm 2 mps 760 mmHg 55%
13:00 +20°C° 0 mm 2 mps 760 mmHg 55%
14:00 +20°C° 0 mm 2 mps 759 mmHg 54%
15:00 +21°C° 0 mm 3 mps 759 mmHg 54%
16:00 +21°C° 0 mm 3 mps 758 mmHg 58%
17:00 +20°C° 0 mm 3 mps 758 mmHg 62%
18:00 +20°C° 0 mm 3 mps 757 mmHg 67%
19:00 +18°C° 0 mm 3 mps 757 mmHg 73%
20:00 +17°C° 0 mm 2 mps 757 mmHg 79%
21:00 +15°C° 0 mm 2 mps 757 mmHg 85%
22:00 +14°C° 0 mm 2 mps 757 mmHg 86%
23:00 +13°C° 0 mm 2 mps 756 mmHg 88%

Day after tomorrow, 16 June, Wednesday

Time Temperature Precipitation Wind Pressure Humidity
00:00 +13°C° 0 mm 2 mps 756 mmHg 89%
01:00 +12°C° 0 mm 2 mps 756 mmHg 90%
02:00 +12°C° 0 mm 2 mps 756 mmHg 90%
03:00 +10°C° 0 mm 2 mps 755 mmHg 90%
04:00 +12°C° 0 mm 2 mps 755 mmHg 87%
05:00 +13°C° 0 mm 2 mps 755 mmHg 83%
06:00 +14°C° 0 mm 2 mps 754 mmHg 80%
07:00 +16°C° 0 mm 3 mps 754 mmHg 75%
08:00 +18°C° 0 mm 3 mps 754 mmHg 70%
09:00 +20°C° 0 mm 3 mps 754 mmHg 64%
10:00 +21°C° 0 mm 3 mps 754 mmHg 61%
11:00 +22°C° 0 mm 3 mps 753 mmHg 58%
12:00 +23°C° 0 mm 4 mps 753 mmHg 55%
13:00 +23°C° 0 mm 4 mps 753 mmHg 54%
14:00 +25°C° 0 mm 4 mps 753 mmHg 54%
15:00 +25°C° 0 mm 4 mps 752 mmHg 53%
16:00 +25°C° 0 mm 3 mps 752 mmHg 58%
17:00 +24°C° 0 mm 3 mps 752 mmHg 62%
18:00 +24°C° 0 mm 2 mps 752 mmHg 67%
19:00 +21°C° 0 mm 2 mps 752 mmHg 72%
20:00 +20°C° 0 mm 1 mps 752 mmHg 77%
21:00 +18°C° 0 mm 1 mps 752 mmHg 83%
22:00 +18°C° 0 mm 1 mps 752 mmHg 83%
23:00 +18°C° 0 mm 1 mps 752 mmHg 83%

17 June, Thursday

Time Temperature Precipitation Wind Pressure Humidity
00:00 +18°C° 0 mm 1 mps 752 mmHg 83%
01:00 +18°C° 0 mm 1 mps 752 mmHg 85%
02:00 +16°C° 0 mm 1 mps 752 mmHg 87%
03:00 +16°C° 0 mm 1 mps 752 mmHg 89%
04:00 +16°C° 0 mm 2 mps 752 mmHg 90%
05:00 +16°C° 0 mm 2 mps 752 mmHg 91%
06:00 +16°C° 0 mm 2 mps 752 mmHg 91%
07:00 +17°C° 0.2 mm 3 mps 752 mmHg 92%
08:00 +17°C° 0.2 mm 3 mps 752 mmHg 93%
09:00 +17°C° 0.2 mm 3 mps 752 mmHg 93%
10:00 +17°C° 2.8 mm 3 mps 752 mmHg 95%
11:00 +17°C° 2.8 mm 3 mps 752 mmHg 96%
12:00 +17°C° 2.8 mm 3 mps 752 mmHg 98%
13:00 +16°C° 1 mm 3 mps 752 mmHg 98%
14:00 +16°C° 1 mm 3 mps 752 mmHg 97%
15:00 +16°C° 1 mm 3 mps 752 mmHg 97%
16:00 +15°C° 0 mm 4 mps 753 mmHg 97%
17:00 +15°C° 0 mm 4 mps 753 mmHg 97%
18:00 +14°C° 0 mm 4 mps 753 mmHg 97%
19:00 +14°C° 0.1 mm 4 mps 753 mmHg 97%
20:00 +14°C° 0.1 mm 4 mps 753 mmHg 96%
21:00 +13°C° 0.1 mm 4 mps 754 mmHg 96%
22:00 +13°C° 0.1 mm 4 mps 754 mmHg 96%
23:00 +13°C° 0.1 mm 4 mps 754 mmHg 96%

18 June, Friday

Time Temperature Precipitation Wind Pressure Humidity
00:00 +13°C° 0.1 mm 4 mps 754 mmHg 95%
01:00 +13°C° 0 mm 4 mps 754 mmHg 95%
02:00 +12°C° 0 mm 4 mps 754 mmHg 94%
03:00 +12°C° 0 mm 4 mps 754 mmHg 94%
04:00 +12°C° 0 mm 4 mps 754 mmHg 93%
05:00 +12°C° 0 mm 5 mps 754 mmHg 92%
06:00 +12°C° 0 mm 5 mps 754 mmHg 90%
07:00 +13°C° 0 mm 5 mps 754 mmHg 91%
08:00 +13°C° 0 mm 5 mps 754 mmHg 91%
09:00 +13°C° 0 mm 5 mps 754 mmHg 91%
10:00 +13°C° 0.3 mm 5 mps 754 mmHg 92%
11:00 +13°C° 0.3 mm 5 mps 754 mmHg 93%
12:00 +14°C° 0.3 mm 6 mps 754 mmHg 93%
13:00 +13°C° 0.4 mm 6 mps 754 mmHg 93%
14:00 +13°C° 0.4 mm 6 mps 754 mmHg 93%
15:00 +13°C° 0.4 mm 6 mps 754 mmHg 93%
16:00 +12°C° 0.7 mm 5 mps 754 mmHg 93%
17:00 +12°C° 0.7 mm 5 mps 754 mmHg 94%
18:00 +12°C° 0.7 mm 5 mps 754 mmHg 94%
19:00 +12°C° 0.2 mm 4 mps 754 mmHg 94%
20:00 +11°C° 0.2 mm 4 mps 755 mmHg 94%
21:00 +11°C° 0.2 mm 3 mps 755 mmHg 94%
22:00 +11°C° 0 mm 3 mps 755 mmHg 94%
23:00 +11°C° 0 mm 3 mps 755 mmHg 94%

19 June, Saturday

Time Temperature Precipitation Wind Pressure Humidity
00:00 +12°C° 0 mm 2 mps 756 mmHg 94%
01:00 +12°C° 0.1 mm 2 mps 756 mmHg 94%
02:00 +10°C° 0.1 mm 2 mps 756 mmHg 94%
03:00 +10°C° 0.1 mm 2 mps 756 mmHg 94%
04:00 +10°C° 0.7 mm 2 mps 756 mmHg 95%
05:00 +10°C° 0.7 mm 2 mps 756 mmHg 96%
06:00 +10°C° 0.7 mm 2 mps 757 mmHg 96%
07:00 +10°C° 0.3 mm 3 mps 757 mmHg 96%
08:00 +10°C° 0.3 mm 3 mps 757 mmHg 96%
09:00 +10°C° 0.3 mm 3 mps 757 mmHg 96%
10:00 +10°C° 0.1 mm 3 mps 757 mmHg 95%
11:00 +11°C° 0.1 mm 4 mps 757 mmHg 94%
12:00 +11°C° 0.1 mm 4 mps 757 mmHg 94%
13:00 +12°C° 0 mm 4 mps 757 mmHg 93%
14:00 +12°C° 0 mm 4 mps 757 mmHg 91%
15:00 +12°C° 0 mm 4 mps 757 mmHg 90%
16:00 +13°C° 0 mm 4 mps 757 mmHg 89%
17:00 +13°C° 0 mm 4 mps 757 mmHg 89%
18:00 +13°C° 0 mm 4 mps 757 mmHg 88%
19:00 +12°C° 0 mm 4 mps 756 mmHg 88%
20:00 +12°C° 0 mm 4 mps 756 mmHg 87%
21:00 +11°C° 0 mm 4 mps 756 mmHg 87%
22:00 +10°C° 0 mm 4 mps 756 mmHg 89%
23:00 +10°C° 0 mm 4 mps 755 mmHg 91%
Show more